Wetterdaten: Freitag, 23.01.2015
Datum Zeit Temp. A. Feuchte A. Luftdruck Regen Wind Richtung Richtung Sonnenschein ET UV Solar Taupunkt Windchill Windben Empfang
23.01.2015 00:00 0,9 C 80 % 1014,7 hPa 0,0 l/m 0,4 km/h (0 Bft) O-SO 114 0 min 0,000 mm 0,0 UV-I 0 W/m -2,2 C 0,9 C 4,0 km/h (1 Bft) 0,00 %
23.01.2015 00:15 0,8 C 80 % 1014,8 hPa 0,0 l/m 1,8 km/h (1 Bft) W-SW 255 0 min 0,000 mm 0,0 UV-I 0 W/m -2,2 C 0,8 C 4,0 km/h (1 Bft) 0,00 %
23.01.2015 00:30 0,8 C 80 % 1014,9 hPa 0,0 l/m 1,4 km/h (1 Bft) SW 232 0 min 0,000 mm 0,0 UV-I 0 W/m -2,2 C 0,8 C 4,0 km/h (1 Bft) 0,00 %
23.01.2015 00:45 0,8 C 80 % 1014,9 hPa 0,0 l/m 0,4 km/h (0 Bft) SW 235 0 min 0,000 mm 0,0 UV-I 0 W/m -2,2 C 0,8 C 4,0 km/h (1 Bft) 0,00 %
23.01.2015 01:00 0,7 C 80 % 1014,9 hPa 0,0 l/m 0,7 km/h (0 Bft) W-SW 255 0 min 0,000 mm 0,0 UV-I 0 W/m -2,3 C 0,7 C 4,0 km/h (1 Bft) 0,00 %
23.01.2015 01:15 0,6 C 80 % 1015,1 hPa 0,0 l/m 0,7 km/h (0 Bft) SW 232 0 min 0,000 mm 0,0 UV-I 0 W/m -2,4 C 0,6 C 4,0 km/h (1 Bft) 0,00 %
23.01.2015 01:30 0,6 C 80 % 1015,1 hPa 0,0 l/m 1,8 km/h (1 Bft) W-SW 253 0 min 0,000 mm 0,0 UV-I 0 W/m -2,4 C 0,6 C 4,0 km/h (1 Bft) 0,00 %
23.01.2015 01:45 0,6 C 80 % 1015,6 hPa 0,0 l/m 0,0 km/h (0 Bft) SW 231 0 min 0,000 mm 0,0 UV-I 0 W/m -2,4 C 0,6 C 0,0 km/h (0 Bft) 0,00 %
23.01.2015 02:00 0,6 C 80 % 1015,5 hPa 0,0 l/m 1,8 km/h (1 Bft) W-SW 256 0 min 0,000 mm 0,0 UV-I 0 W/m -2,4 C 0,6 C 4,0 km/h (1 Bft) 0,00 %
23.01.2015 02:15 0,5 C 80 % 1015,7 hPa 0,0 l/m 2,2 km/h (1 Bft) W-SW 251 0 min 0,000 mm 0,0 UV-I 0 W/m -2,5 C 0,5 C 4,0 km/h (1 Bft) 0,00 %
23.01.2015 02:30 0,4 C 80 % 1015,7 hPa 0,0 l/m 0,7 km/h (0 Bft) W-SW 256 0 min 0,000 mm 0,0 UV-I 0 W/m -2,6 C 0,4 C 4,0 km/h (1 Bft) 0,00 %
23.01.2015 02:45 0,4 C 81 % 1015,7 hPa 0,0 l/m 0,7 km/h (0 Bft) SW 220 0 min 0,000 mm 0,0 UV-I 0 W/m -2,5 C 0,4 C 4,0 km/h (1 Bft) 0,00 %
23.01.2015 03:00 0,3 C 81 % 1015,5 hPa 0,0 l/m 0,7 km/h (0 Bft) W-SW 256 0 min 0,000 mm 0,0 UV-I 0 W/m -2,6 C 0,3 C 4,0 km/h (1 Bft) 0,00 %
23.01.2015 03:15 0,2 C 81 % 1015,7 hPa 0,0 l/m 2,9 km/h (1 Bft) W-SW 253 0 min 0,000 mm 0,0 UV-I 0 W/m -2,7 C 0,2 C 4,0 km/h (1 Bft) 0,00 %
23.01.2015 03:30 0,2 C 81 % 1015,7 hPa 0,0 l/m 1,4 km/h (1 Bft) SW 223 0 min 0,000 mm 0,0 UV-I 0 W/m -2,7 C 0,2 C 4,0 km/h (1 Bft) 0,00 %
23.01.2015 03:45 0,2 C 81 % 1015,8 hPa 0,0 l/m 0,0 km/h (0 Bft) S 191 0 min 0,000 mm 0,0 UV-I 0 W/m -2,7 C 0,2 C 0,0 km/h (0 Bft) 0,00 %
23.01.2015 04:00 0,2 C 81 % 1015,9 hPa 0,0 l/m 0,0 km/h (0 Bft) S-SW 200 0 min 0,000 mm 0,0 UV-I 0 W/m -2,7 C 0,2 C 0,0 km/h (0 Bft) 0,00 %
23.01.2015 04:15 0,2 C 81 % 1016,0 hPa 0,0 l/m 0,7 km/h (0 Bft) S-SW 201 0 min 0,000 mm 0,0 UV-I 0 W/m -2,7 C 0,2 C 4,0 km/h (1 Bft) 0,00 %
23.01.2015 04:30 0,2 C 81 % 1016,1 hPa 0,0 l/m 0,0 km/h (0 Bft) S-SW 198 0 min 0,000 mm 0,0 UV-I 0 W/m -2,7 C 0,2 C 0,0 km/h (0 Bft) 0,00 %
23.01.2015 04:45 0,2 C 81 % 1016,1 hPa 0,0 l/m 0,4 km/h (0 Bft) S-SW 202 0 min 0,000 mm 0,0 UV-I 0 W/m -2,7 C 0,2 C 4,0 km/h (1 Bft) 0,00 %
23.01.2015 05:00 0,2 C 82 % 1016,2 hPa 0,0 l/m 0,0 km/h (0 Bft) S-SW 213 0 min 0,000 mm 0,0 UV-I 0 W/m -2,5 C 0,2 C 0,0 km/h (0 Bft) 0,00 %
23.01.2015 05:15 0,2 C 81 % 1016,3 hPa 0,0 l/m 0,0 km/h (0 Bft) N-NW 339 0 min 0,000 mm 0,0 UV-I 0 W/m -2,7 C 0,2 C 0,0 km/h (0 Bft) 0,00 %
23.01.2015 05:30 0,2 C 81 % 1016,1 hPa 0,0 l/m 0,0 km/h (0 Bft) S 189 0 min 0,000 mm 0,0 UV-I 0 W/m -2,7 C 0,2 C 0,0 km/h (0 Bft) 0,00 %
23.01.2015 05:45 0,2 C 81 % 1016,4 hPa 0,0 l/m 0,4 km/h (0 Bft) W-SW 255 0 min 0,000 mm 0,0 UV-I 0 W/m -2,7 C 0,2 C 4,0 km/h (1 Bft) 0,00 %
23.01.2015 06:00 0,3 C 80 % 1016,5 hPa 0,0 l/m 0,4 km/h (0 Bft) W-SW 240 0 min 0,000 mm 0,0 UV-I 0 W/m -2,7 C 0,3 C 4,0 km/h (1 Bft) 0,00 %
23.01.2015 06:15 0,3 C 80 % 1016,6 hPa 0,0 l/m 0,0 km/h (0 Bft) S-SW 194 0 min 0,000 mm 0,0 UV-I 0 W/m -2,7 C 0,3 C 0,0 km/h (0 Bft) 0,00 %
23.01.2015 06:30 0,3 C 80 % 1017,0 hPa 0,0 l/m 0,0 km/h (0 Bft) SW 224 0 min 0,000 mm 0,0 UV-I 0 W/m -2,7 C 0,3 C 0,0 km/h (0 Bft) 0,00 %
23.01.2015 06:45 0,4 C 80 % 1016,9 hPa 0,0 l/m 1,4 km/h (1 Bft) W-SW 257 0 min 0,000 mm 0,0 UV-I 0 W/m -2,6 C 0,4 C 4,0 km/h (1 Bft) 0,00 %
23.01.2015 07:00 0,4 C 80 % 1017,0 hPa 0,0 l/m 0,0 km/h (0 Bft) SW 225 0 min 0,000 mm 0,0 UV-I 0 W/m -2,6 C 0,4 C 0,0 km/h (0 Bft) 0,00 %
23.01.2015 07:15 0,4 C 79 % 1017,2 hPa 0,0 l/m 0,4 km/h (0 Bft) SO 146 0 min 0,000 mm 0,0 UV-I 0 W/m -2,8 C 0,4 C 4,0 km/h (1 Bft) 0,00 %
23.01.2015 07:30 0,4 C 78 % 1017,4 hPa 0,0 l/m 0,0 km/h (0 Bft) W-SW 252 0 min 0,000 mm 0,0 UV-I 0 W/m -3,0 C 0,4 C 0,0 km/h (0 Bft) 0,00 %
23.01.2015 07:45 0,5 C 78 % 1017,8 hPa 0,0 l/m 2,2 km/h (1 Bft) W-SW 252 0 min 0,000 mm 0,0 UV-I 0 W/m -2,9 C 0,5 C 4,0 km/h (1 Bft) 0,00 %
23.01.2015 08:00 0,5 C 78 % 1017,5 hPa 0,0 l/m 1,4 km/h (1 Bft) SW 223 0 min 0,000 mm 0,0 UV-I 0 W/m -2,9 C 0,5 C 4,0 km/h (1 Bft) 0,00 %
23.01.2015 08:15 0,5 C 78 % 1017,5 hPa 0,0 l/m 0,0 km/h (0 Bft) W-SW 253 0 min 0,000 mm 0,0 UV-I 0 W/m -2,9 C 0,5 C 0,0 km/h (0 Bft) 0,00 %
23.01.2015 08:30 0,6 C 77 % 1017,6 hPa 0,0 l/m 0,4 km/h (0 Bft) W-SW 255 0 min 0,000 mm 0,0 UV-I 37 W/m -3,0 C 0,6 C 4,0 km/h (1 Bft) 0,00 %
23.01.2015 08:45 0,7 C 77 % 1017,9 hPa 0,0 l/m 0,4 km/h (0 Bft) W-SW 251 0 min 0,000 mm 0,0 UV-I 59 W/m -2,9 C 0,7 C 4,0 km/h (1 Bft) 0,00 %
23.01.2015 09:00 0,7 C 77 % 1018,1 hPa 0,0 l/m 5,4 km/h (1 Bft) W-SW 245 0 min 0,000 mm 0,0 UV-I 56 W/m -2,9 C 0,7 C 7,9 km/h (2 Bft) 0,00 %
23.01.2015 09:15 0,7 C 77 % 1018,1 hPa 0,0 l/m 0,0 km/h (0 Bft) SW 225 0 min 0,000 mm 0,0 UV-I 97 W/m -2,9 C 0,7 C 0,0 km/h (0 Bft) 0,00 %
23.01.2015 09:30 0,8 C 77 % 1018,2 hPa 0,0 l/m 0,7 km/h (0 Bft) W-SW 251 15 min 0,000 mm 1,0 UV-I 127 W/m -2,8 C 0,8 C 4,0 km/h (1 Bft) 0,00 %
23.01.2015 09:45 1,0 C 77 % 1018,2 hPa 0,0 l/m 2,9 km/h (1 Bft) W-SW 251 15 min 0,000 mm 1,0 UV-I 192 W/m -2,6 C 1,0 C 4,0 km/h (1 Bft) 0,00 %
23.01.2015 10:00 1,1 C 76 % 1018,4 hPa 0,0 l/m 0,0 km/h (0 Bft) W-SW 243 15 min 0,000 mm 1,0 UV-I 216 W/m -2,6 C 1,1 C 0,0 km/h (0 Bft) 0,00 %
23.01.2015 10:15 1,3 C 76 % 1018,4 hPa 0,0 l/m 5,8 km/h (2 Bft) W-SW 250 15 min 0,000 mm 1,0 UV-I 238 W/m -2,5 C 1,3 C 7,9 km/h (2 Bft) 0,00 %
23.01.2015 10:30 1,3 C 77 % 1018,4 hPa 0,0 l/m 0,0 km/h (0 Bft) W-SW 256 15 min 0,000 mm 1,0 UV-I 235 W/m -2,3 C 1,3 C 0,0 km/h (0 Bft) 0,00 %
23.01.2015 10:45 1,3 C 78 % 1018,7 hPa 0,0 l/m 0,0 km/h (0 Bft) W-SW 256 15 min 0,000 mm 1,0 UV-I 276 W/m -2,1 C 1,3 C 0,0 km/h (0 Bft) 0,00 %
23.01.2015 11:00 1,3 C 79 % 1018,5 hPa 0,0 l/m 0,0 km/h (0 Bft) SW 231 15 min 0,000 mm 1,0 UV-I 203 W/m -1,9 C 1,3 C 0,0 km/h (0 Bft) 0,00 %
23.01.2015 11:15 1,2 C 79 % 1018,5 hPa 0,0 l/m 6,5 km/h (2 Bft) W-SW 256 15 min 0,000 mm 1,0 UV-I 221 W/m -2,0 C 1,1 C 11,9 km/h (2 Bft) 0,00 %
23.01.2015 11:30 1,2 C 79 % 1018,4 hPa 0,0 l/m 0,4 km/h (0 Bft) S-SW 207 0 min 0,000 mm 1,0 UV-I 136 W/m -2,0 C 1,2 C 4,0 km/h (1 Bft) 0,00 %
23.01.2015 11:45 1,2 C 79 % 1018,8 hPa 0,0 l/m 0,0 km/h (0 Bft) SW 216 0 min 0,000 mm 1,0 UV-I 153 W/m -2,0 C 1,2 C 0,0 km/h (0 Bft) 0,00 %
23.01.2015 12:00 1,3 C 79 % 1018,3 hPa 0,0 l/m 0,4 km/h (0 Bft) W-SW 251 0 min 0,000 mm 1,0 UV-I 170 W/m -1,9 C 1,3 C 4,0 km/h (1 Bft) 0,00 %
23.01.2015 12:15 1,2 C 79 % 1018,4 hPa 0,0 l/m 0,0 km/h (0 Bft) S 181 0 min 0,000 mm 1,0 UV-I 200 W/m -2,0 C 1,2 C 0,0 km/h (0 Bft) 0,00 %
23.01.2015 12:30 1,3 C 79 % 1018,3 hPa 0,0 l/m 0,4 km/h (0 Bft) SW 235 0 min 0,000 mm 1,0 UV-I 152 W/m -1,9 C 1,3 C 4,0 km/h (1 Bft) 0,00 %
23.01.2015 12:45 1,3 C 79 % 1018,3 hPa 0,0 l/m 0,4 km/h (0 Bft) W-SW 242 15 min 0,000 mm 1,0 UV-I 266 W/m -1,9 C 1,3 C 4,0 km/h (1 Bft) 0,00 %
23.01.2015 13:00 1,3 C 79 % 1018,2 hPa 0,3 l/m 0,0 km/h (0 Bft) W-SW 246 0 min 0,000 mm 1,0 UV-I 175 W/m -1,9 C 1,3 C 0,0 km/h (0 Bft) 0,00 %
23.01.2015 13:15 1,2 C 79 % 1018,2 hPa 0,0 l/m 0,0 km/h (0 Bft) S 188 0 min 0,000 mm 1,0 UV-I 177 W/m -2,0 C 1,2 C 0,0 km/h (0 Bft) 0,00 %
23.01.2015 13:30 1,1 C 80 % 1018,2 hPa 0,0 l/m 0,0 km/h (0 Bft) S-SW 213 0 min 0,000 mm 0,0 UV-I 87 W/m -2,0 C 1,1 C 0,0 km/h (0 Bft) 0,00 %
23.01.2015 13:45 1,0 C 80 % 1018,4 hPa 0,0 l/m 0,0 km/h (0 Bft) S-SW 208 0 min 0,000 mm 0,0 UV-I 76 W/m -2,1 C 1,0 C 0,0 km/h (0 Bft) 0,00 %
23.01.2015 14:00 0,9 C 80 % 1018,6 hPa 0,0 l/m 1,4 km/h (1 Bft) W-SW 250 0 min 0,000 mm 0,0 UV-I 81 W/m -2,2 C 0,9 C 4,0 km/h (1 Bft) 0,00 %
23.01.2015 14:15 0,9 C 80 % 1018,7 hPa 0,0 l/m 0,0 km/h (0 Bft) S-SW 208 0 min 0,000 mm 0,0 UV-I 31 W/m -2,2 C 0,9 C 0,0 km/h (0 Bft) 0,00 %
23.01.2015 14:30 0,9 C 80 % 1018,8 hPa 0,3 l/m 0,4 km/h (0 Bft) W-SW 252 0 min 0,000 mm 0,0 UV-I 13 W/m -2,2 C 0,9 C 4,0 km/h (1 Bft) 0,00 %
23.01.2015 14:45 0,8 C 81 % 1019,1 hPa 0,0 l/m 0,0 km/h (0 Bft) S-SW 212 0 min 0,000 mm 0,0 UV-I 0 W/m -2,1 C 0,8 C 0,0 km/h (0 Bft) 0,00 %
23.01.2015 15:00 0,8 C 81 % 1019,3 hPa 0,0 l/m 0,0 km/h (0 Bft) S-SW 197 0 min 0,000 mm 0,0 UV-I 3 W/m -2,1 C 0,8 C 0,0 km/h (0 Bft) 0,00 %
23.01.2015 15:15 0,7 C 81 % 1019,3 hPa 0,0 l/m 1,8 km/h (1 Bft) W-NW 298 0 min 0,000 mm 0,0 UV-I 10 W/m -2,2 C 0,7 C 4,0 km/h (1 Bft) 0,00 %
23.01.2015 15:30 0,7 C 81 % 1019,1 hPa 0,0 l/m 3,2 km/h (1 Bft) W-SW 240 0 min 0,000 mm 0,0 UV-I 20 W/m -2,2 C 0,7 C 4,0 km/h (1 Bft) 0,00 %
23.01.2015 15:45 0,6 C 81 % 1019,4 hPa 0,0 l/m 4,0 km/h (1 Bft) W-SW 251 0 min 0,000 mm 0,0 UV-I 2 W/m -2,3 C 0,6 C 7,9 km/h (2 Bft) 0,00 %
23.01.2015 16:00 0,5 C 81 % 1019,6 hPa 0,3 l/m 0,0 km/h (0 Bft) S-SW 209 0 min 0,000 mm 0,0 UV-I 0 W/m -2,4 C 0,5 C 0,0 km/h (0 Bft) 0,00 %
23.01.2015 16:15 0,6 C 81 % 1019,5 hPa 0,0 l/m 0,4 km/h (0 Bft) SW 229 0 min 0,000 mm 0,0 UV-I 0 W/m -2,3 C 0,6 C 4,0 km/h (1 Bft) 0,00 %
23.01.2015 16:30 0,5 C 81 % 1019,5 hPa 0,0 l/m 4,3 km/h (1 Bft) N-NW 342 0 min 0,000 mm 0,0 UV-I 0 W/m -2,4 C 0,5 C 7,9 km/h (2 Bft) 0,00 %
23.01.2015 16:45 0,5 C 81 % 1019,7 hPa 0,0 l/m 0,4 km/h (0 Bft) W-SW 251 0 min 0,000 mm 0,0 UV-I 0 W/m -2,4 C 0,5 C 4,0 km/h (1 Bft) 0,00 %
23.01.2015 17:00 0,5 C 81 % 1019,9 hPa 0,0 l/m 0,4 km/h (0 Bft) SW 215 0 min 0,000 mm 0,0 UV-I 0 W/m -2,4 C 0,5 C 4,0 km/h (1 Bft) 0,00 %
23.01.2015 17:15 0,3 C 82 % 1020,0 hPa 0,0 l/m 0,0 km/h (0 Bft) S 172 0 min 0,000 mm 0,0 UV-I 0 W/m -2,4 C 0,3 C 0,0 km/h (0 Bft) 0,00 %
23.01.2015 17:30 0,3 C 82 % 1020,0 hPa 0,3 l/m 0,0 km/h (0 Bft) S 185 0 min 0,000 mm 0,0 UV-I 0 W/m -2,4 C 0,3 C 0,0 km/h (0 Bft) 0,00 %
23.01.2015 17:45 0,3 C 82 % 1020,0 hPa 0,0 l/m 2,2 km/h (1 Bft) W-SW 253 0 min 0,000 mm 0,0 UV-I 0 W/m -2,4 C 0,3 C 4,0 km/h (1 Bft) 0,00 %
23.01.2015 18:00 0,3 C 82 % 1020,4 hPa 0,0 l/m 1,8 km/h (1 Bft) W-SW 252 0 min 0,000 mm 0,0 UV-I 0 W/m -2,4 C 0,3 C 4,0 km/h (1 Bft) 0,00 %
23.01.2015 18:15 0,2 C 82 % 1020,6 hPa 0,0 l/m 0,0 km/h (0 Bft) SW 233 0 min 0,000 mm 0,0 UV-I 0 W/m -2,5 C 0,2 C 0,0 km/h (0 Bft) 0,00 %
23.01.2015 18:30 0,2 C 82 % 1020,8 hPa 0,0 l/m 0,4 km/h (0 Bft) SW 219 0 min 0,000 mm 0,0 UV-I 0 W/m -2,5 C 0,2 C 4,0 km/h (1 Bft) 0,00 %
23.01.2015 18:45 0,1 C 82 % 1020,8 hPa 0,0 l/m 0,0 km/h (0 Bft) SW 221 0 min 0,000 mm 0,0 UV-I 0 W/m -2,6 C 0,1 C 0,0 km/h (0 Bft) 0,00 %
23.01.2015 19:00 0,1 C 82 % 1020,9 hPa 0,0 l/m 0,0 km/h (0 Bft) S-SW 204 0 min 0,000 mm 0,0 UV-I 0 W/m -2,6 C 0,1 C 0,0 km/h (0 Bft) 0,00 %
23.01.2015 19:15 0,1 C 82 % 1021,1 hPa 0,0 l/m 0,0 km/h (0 Bft) S 186 0 min 0,000 mm 0,0 UV-I 0 W/m -2,6 C 0,1 C 0,0 km/h (0 Bft) 0,00 %
23.01.2015 19:30 0,0 C 82 % 1020,9 hPa 0,0 l/m 0,0 km/h (0 Bft) SW 214 0 min 0,000 mm 0,0 UV-I 0 W/m -2,7 C 0,0 C 0,0 km/h (0 Bft) 0,00 %
23.01.2015 19:45 -0,1 C 82 % 1021,3 hPa 0,0 l/m 0,0 km/h (0 Bft) SO 128 0 min 0,000 mm 0,0 UV-I 0 W/m -2,8 C -0,1 C 0,0 km/h (0 Bft) 0,00 %
23.01.2015 20:00 -0,1 C 83 % 1020,9 hPa 0,0 l/m 1,8 km/h (1 Bft) O 98 0 min 0,000 mm 0,0 UV-I 0 W/m -2,6 C -0,1 C 4,0 km/h (1 Bft) 0,00 %
23.01.2015 20:15 -0,1 C 83 % 1021,3 hPa 0,0 l/m 0,7 km/h (0 Bft) W-SW 255 0 min 0,000 mm 0,0 UV-I 0 W/m -2,6 C -0,1 C 4,0 km/h (1 Bft) 0,00 %
23.01.2015 20:30 0,0 C 83 % 1021,4 hPa 0,3 l/m 0,4 km/h (0 Bft) S-SW 197 0 min 0,000 mm 0,0 UV-I 0 W/m -2,5 C 0,0 C 4,0 km/h (1 Bft) 0,00 %
23.01.2015 20:45 -0,1 C 83 % 1021,5 hPa 0,0 l/m 1,4 km/h (1 Bft) W-SW 253 0 min 0,000 mm 0,0 UV-I 0 W/m -2,6 C -0,1 C 4,0 km/h (1 Bft) 0,00 %
23.01.2015 21:00 0,0 C 83 % 1021,2 hPa 0,0 l/m 0,0 km/h (0 Bft) SW 218 0 min 0,000 mm 0,0 UV-I 0 W/m -2,5 C 0,0 C 0,0 km/h (0 Bft) 0,00 %
23.01.2015 21:15 -0,1 C 83 % 1021,5 hPa 0,0 l/m 0,0 km/h (0 Bft) W-SW 251 0 min 0,000 mm 0,0 UV-I 0 W/m -2,6 C -0,1 C 0,0 km/h (0 Bft) 0,00 %
23.01.2015 21:30 -0,1 C 83 % 1021,5 hPa 0,0 l/m 0,0 km/h (0 Bft) S 173 0 min 0,000 mm 0,0 UV-I 0 W/m -2,6 C -0,1 C 0,0 km/h (0 Bft) 0,00 %
23.01.2015 21:45 0,0 C 83 % 1021,7 hPa 0,0 l/m 0,4 km/h (0 Bft) S-SW 210 0 min 0,000 mm 0,0 UV-I 0 W/m -2,5 C 0,0 C 4,0 km/h (1 Bft) 0,00 %
23.01.2015 22:00 0,0 C 83 % 1021,7 hPa 0,0 l/m 0,4 km/h (0 Bft) W-SW 251 0 min 0,000 mm 0,0 UV-I 0 W/m -2,5 C 0,0 C 4,0 km/h (1 Bft) 0,00 %
23.01.2015 22:15 0,0 C 83 % 1021,5 hPa 0,0 l/m 0,0 km/h (0 Bft) W-SW 254 0 min 0,000 mm 0,0 UV-I 0 W/m -2,5 C 0,0 C 0,0 km/h (0 Bft) 0,00 %
23.01.2015 22:30 0,0 C 83 % 1021,6 hPa 0,0 l/m 0,0 km/h (0 Bft) W-SW 252 0 min 0,000 mm 0,0 UV-I 0 W/m -2,5 C 0,0 C 0,0 km/h (0 Bft) 0,00 %
23.01.2015 22:45 -0,1 C 83 % 1021,6 hPa 0,0 l/m 0,0 km/h (0 Bft) SW 232 0 min 0,000 mm 0,0 UV-I 0 W/m -2,6 C -0,1 C 0,0 km/h (0 Bft) 0,00 %
23.01.2015 23:00 0,0 C 83 % 1021,6 hPa 0,0 l/m 1,4 km/h (1 Bft) W-SW 255 0 min 0,000 mm 0,0 UV-I 0 W/m -2,5 C 0,0 C 4,0 km/h (1 Bft) 0,00 %
23.01.2015 23:15 0,0 C 83 % 1021,7 hPa 0,0 l/m 0,0 km/h (0 Bft) W-SW 254 0 min 0,000 mm 0,0 UV-I 0 W/m -2,5 C 0,0 C 0,0 km/h (0 Bft) 0,00 %
23.01.2015 23:30 0,0 C 83 % 1021,7 hPa 0,0 l/m 0,0 km/h (0 Bft) N-NO 33 0 min 0,000 mm 0,0 UV-I 0 W/m -2,5 C 0,0 C 0,0 km/h (0 Bft) 0,00 %
_ Min-Zeit 19:45 10:00 00:00 - 01:45 - - - - - - 07:30 19:45 01:45 00:00
Minimum _ -0,1 C 76 % 1014,7 hPa - 0,0 km/h (0 Bft) - - - - - - -3,0 C -0,1 C 0,0 km/h (0 Bft) 0,00 %
_ Max-Zeit 10:15 20:00 21:45 13:00 11:15 - - 09:30 00:00 09:30 10:45 11:00 10:15 11:15 00:00
Maximum _ 1,3 C 83 % 1021,7 hPa 0,3 l/m 6,5 km/h
W-SW (2 Bft)
- - 15 min 0,000 mm 1,0 UV-I 276 W/m -1,9 C 1,3 C 11,9 km/h
W-SW (2 Bft)
0,00 %
Durchschnitt _ 0,5 C 80 % 1018,4 hPa #1,5 l/m 0,8 km/h (0 Bft) W-SW - #2:15 h #0,000 mm 1,0 UV-I 128 W/m -2,5 C 0,5 C 2,4 km/h (1 Bft) 0,00 %